カタログに戻る

STARLINK-35243

運用中通信VLEO
NORAD 66016·PAYLOAD·🇺🇸 United States

打ち上げ Oct 16, 2025 から Cape Canaveral Space Force Station

Loading…

次のパス (今後24時間)

TLE

最新Source: CelesTrak SupGP

元期: Sep 15, 2026, 04:14 UTC

1 66016C 25232M   26258.17687500  .00004505  00000+0  13308-3 0  2589
2 66016  53.1578 300.8585 0001203  93.9829  56.2597 15.34392093    19

AllMySatでSTARLINK-35243をリアルタイム追跡

Download on the App Store